Retour au catalogue

STARLINK-30760

ActifCommunicationsVLEO
NORAD 58187·PAYLOAD·🇺🇸 United States

Lancé Oct 30, 2023 depuis Cape Canaveral Space Force Station

Loading…

Prochains Passages (prochaines 24 heures)

TLE

FraisSource: CelesTrak SupGP

Époque: Sep 15, 2026, 02:30 UTC

1 58187C 23167N   26258.10465278  .00025351  00000+0  91841-3 0  2583
2 58187  43.0026 153.7367 0001342 276.5713  62.0783 15.27558468    17

Suivez STARLINK-30760 en temps réel avec AllMySat

Download on the App Store